Fergus Falls, MN

9:50 AM CST on November 20, 2017 (GMT -0600)
Fergus Falls Municipal-Mickelson

Weather History for KFFM - February, 2014

Change the Weather History Date:

Monday, February 17, 2014

  Actual Average Record
Temperature  
Mean Temperature 24 °F -  
Max Temperature 32 °F 23 °F 51 °F (2017)
Min Temperature 17 °F 4 °F -31 °F (1979)
Degree Days  
Heating Degree Days 40    
Moisture  
Dew Point 18 °F    
Average Humidity 83    
Maximum Humidity 93    
Minimum Humidity 41    
Precipitation  
Precipitation 0.01 in - - ()
Sea Level Pressure  
Sea Level Pressure 29.70 in    
Wind  
Wind Speed 12 mph (South)    
Max Wind Speed 21 mph    
Max Gust Speed 26 mph    
Visibility 7 miles    
Events Snow    
Averages and records for this station are not official NWS values.
T = Trace of Precipitation, MM = Missing Value Source: NWS Daily Summary

Daily Weather History Graph

Daily Weather History Graph

Search for Another Location

Airport or City:

Trip Planner

Search our weather history database for the weather conditions in past years. The results will help you decide how hot, cold, wet, or windy it might be!

Date:

Astronomy

Feb. 17, 2014 Rise Set
Actual Time 7:24 AM CST 5:53 PM CST
Civil Twilight 6:53 AM CST 6:24 PM CST
Nautical Twilight 6:18 AM CST 6:59 PM CST
Astronomical Twilight 5:43 AM CST 7:34 PM CST
Moon 9:01 PM CST (2/17) 8:14 AM CST (2/17)
Length of Visible Light 11h 30m
Length of Day
10h 29m
Waning Gibbous, 93% of the Moon is Illuminated
Feb 17
Waning Gibbous
Feb 22
Last Quarter
Mar 1
New
Mar 8
First Quarter
Mar 16
Full

Hourly Weather History & Observations

Time (CST) Temp. Windchill Dew Point Humidity Pressure Visibility Wind Dir Wind Speed Gust Speed Precip Events Conditions
12:13 AM 17.6 °F 2.2 °F 10.4 °F 73% 29.80 in 10.0 mi SSE 17.3 mph 23.0 mph N/A   Overcast
12:33 AM 32.0 °F 20.8 °F 10.4 °F 41% 29.80 in 10.0 mi SE 17.3 mph - N/A   Overcast
12:53 AM 19.4 °F 4.5 °F 10.4 °F 68% 29.79 in 10.0 mi SE 17.3 mph - N/A   Overcast
1:13 AM 19.4 °F 4.5 °F 12.2 °F 74% 29.79 in 10.0 mi SE 17.3 mph 24.2 mph N/A   Overcast
1:33 AM 19.4 °F 4.5 °F 12.2 °F 74% 29.77 in 10.0 mi SE 17.3 mph 21.9 mph N/A   Overcast
1:53 AM 19.4 °F 5.0 °F 12.2 °F 74% 29.76 in 10.0 mi SE 16.1 mph - N/A   Overcast
2:13 AM 19.4 °F 3.6 °F 12.2 °F 74% 29.75 in 10.0 mi SSE 19.6 mph 25.3 mph N/A   Mostly Cloudy
2:33 AM 19.4 °F 4.5 °F 14.0 °F 80% 29.74 in 10.0 mi SE 17.3 mph 21.9 mph N/A   Scattered Clouds
2:53 AM 19.4 °F 4.5 °F 14.0 °F 80% 29.73 in 10.0 mi SSE 17.3 mph 24.2 mph N/A   Mostly Cloudy
3:13 AM 21.2 °F 5.6 °F 15.8 °F 80% 29.72 in 4.0 mi SSE 20.7 mph 26.5 mph N/A   Haze
3:33 AM 21.2 °F 6.4 °F 15.8 °F 80% 29.71 in 3.0 mi SSE 18.4 mph - N/A   Haze
3:53 AM 19.4 °F 5.0 °F 15.8 °F 86% 29.71 in 2.5 mi SSE 16.1 mph - N/A   Overcast
4:13 AM 19.4 °F 5.5 °F 15.8 °F 86% 29.69 in 2.5 mi SSE 15.0 mph - N/A Snow Light Snow
4:33 AM 19.4 °F 6.0 °F 17.6 °F 93% 29.70 in 2.0 mi SE 13.8 mph 20.7 mph N/A Snow Light Snow
4:53 AM 19.4 °F 6.0 °F 17.6 °F 93% 29.70 in 1.5 mi SSE 13.8 mph - N/A Snow Light Snow
5:13 AM 19.4 °F 6.0 °F 17.6 °F 93% 29.71 in 2.0 mi SSE 13.8 mph - N/A Snow Light Snow
5:33 AM 19.4 °F 7.2 °F 17.6 °F 93% 29.71 in 2.0 mi SSE 11.5 mph - N/A Snow Light Snow
5:53 AM 19.4 °F 8.6 °F 17.6 °F 93% 29.70 in 2.0 mi SSE 9.2 mph - 0.01 in Snow Light Snow
6:13 AM 19.4 °F 8.6 °F 17.6 °F 93% 29.69 in 2.5 mi SSE 9.2 mph - N/A Snow Light Snow
6:33 AM 19.4 °F 9.5 °F 17.6 °F 93% 29.69 in 1.8 mi SSE 8.1 mph - N/A Snow Light Snow
6:53 AM 19.4 °F 8.6 °F 17.6 °F 93% 29.69 in 2.5 mi South 9.2 mph - N/A Snow Light Snow
7:13 AM 19.4 °F 10.4 °F 17.6 °F 93% 29.68 in 2.5 mi South 6.9 mph - N/A Snow Light Snow
7:33 AM 19.4 °F 10.4 °F 17.6 °F 93% 29.67 in 2.5 mi South 6.9 mph - N/A Snow Light Snow
7:53 AM 19.4 °F 10.4 °F 17.6 °F 93% 29.68 in 2.5 mi South 6.9 mph - N/A Snow Light Snow
8:13 AM 19.4 °F 12.8 °F 17.6 °F 93% 29.68 in 2.5 mi SSW 4.6 mph - N/A   Mist
8:30 AM 19.4 °F - 17.6 °F 93% 29.68 in 2.5 mi Calm Calm - N/A   Scattered Clouds
8:53 AM 19.4 °F 11.5 °F 17.6 °F 93% 29.69 in 2.5 mi SSW 5.8 mph - N/A   Scattered Clouds
9:13 AM 19.4 °F 12.8 °F 17.6 °F 93% 29.68 in 2.5 mi South 4.6 mph - N/A   Scattered Clouds
9:33 AM 19.4 °F 12.8 °F 17.6 °F 93% 29.68 in 2.5 mi SSW 4.6 mph - N/A   Scattered Clouds
9:53 AM 19.4 °F 11.5 °F 17.6 °F 93% 29.68 in 2.5 mi WSW 5.8 mph - N/A   Clear
10:13 AM 19.4 °F 12.8 °F 17.6 °F 93% 29.68 in 2.5 mi SW 4.6 mph - N/A   Clear
10:33 AM 19.4 °F 11.5 °F 17.6 °F 93% 29.68 in 3.0 mi SW 5.8 mph - N/A   Clear
10:53 AM 21.2 °F 12.6 °F 17.6 °F 86% 29.69 in 5.0 mi WSW 6.9 mph - N/A   Scattered Clouds
11:13 AM 21.2 °F 12.6 °F 17.6 °F 86% 29.69 in 5.0 mi West 6.9 mph - N/A   Scattered Clouds
11:33 AM 21.2 °F 14.9 °F 17.6 °F 86% 29.69 in 5.0 mi West 4.6 mph - N/A   Haze
11:53 AM 23.0 °F 18.4 °F 17.6 °F 80% 29.69 in 7.0 mi West 3.5 mph - N/A   Clear
12:13 PM 24.8 °F 17.9 °F 17.6 °F 74% 29.69 in 7.0 mi WNW 5.8 mph - N/A   Clear
12:33 PM 24.8 °F 17.9 °F 17.6 °F 74% 29.70 in 10.0 mi West 5.8 mph - N/A   Clear
12:53 PM 24.8 °F 16.9 °F 17.6 °F 74% 29.70 in 10.0 mi WNW 6.9 mph - N/A   Clear
1:13 PM 24.8 °F - 17.6 °F 74% 29.69 in 10.0 mi Calm Calm - N/A   Clear
1:33 PM 24.8 °F 16.1 °F 19.4 °F 80% 29.70 in 10.0 mi WNW 8.1 mph - N/A   Clear
1:53 PM 26.6 °F 20.0 °F 19.4 °F 74% 29.70 in 10.0 mi WNW 5.8 mph - N/A   Clear
2:12 PM 28.4 °F 19.7 °F 21.2 °F 74% 29.70 in 10.0 mi NW 9.2 mph - N/A   Clear
2:33 PM 30.2 °F 21.3 °F 23.0 °F 75% 29.69 in 10.0 mi NW 10.4 mph - N/A   Clear
2:53 PM 28.4 °F 19.1 °F 23.0 °F 80% 29.69 in 10.0 mi NW 10.4 mph - N/A   Clear
3:13 PM 28.4 °F 20.4 °F 23.0 °F 80% 29.70 in 10.0 mi WNW 8.1 mph - N/A   Clear
3:33 PM 30.2 °F 23.4 °F 23.0 °F 75% 29.71 in 10.0 mi West 6.9 mph - N/A   Clear
3:53 PM 26.6 °F 20.0 °F 21.2 °F 80% 29.71 in 10.0 mi West 5.8 mph - N/A   Clear
4:13 PM 26.6 °F 19.1 °F 21.2 °F 80% 29.71 in 10.0 mi West 6.9 mph - N/A   Clear
4:33 PM 26.6 °F 21.2 °F 19.4 °F 74% 29.72 in 10.0 mi West 4.6 mph - N/A   Clear
4:53 PM 26.6 °F - 21.2 °F 80% 29.72 in 10.0 mi Calm Calm - N/A   Clear
5:13 PM 26.6 °F - 21.2 °F 80% 29.72 in 10.0 mi Calm Calm - N/A   Clear
5:33 PM 26.6 °F - 21.2 °F 80% 29.71 in 10.0 mi Calm Calm - N/A   Clear
5:53 PM 24.8 °F 20.5 °F 21.2 °F 86% 29.70 in 10.0 mi SSE 3.5 mph - N/A   Clear
6:13 PM 24.8 °F 20.5 °F 19.4 °F 80% 29.70 in 10.0 mi South 3.5 mph - N/A   Clear
6:33 PM 21.2 °F 12.6 °F 17.6 °F 86% 29.71 in 10.0 mi South 6.9 mph - N/A   Clear
6:53 PM 21.2 °F 11.7 °F 19.4 °F 93% 29.70 in 10.0 mi SSE 8.1 mph - N/A   Clear
7:13 PM 19.4 °F 9.5 °F 17.6 °F 93% 29.69 in 10.0 mi SSE 8.1 mph - N/A   Clear
7:33 PM 19.4 °F 10.4 °F 17.6 °F 93% 29.68 in 10.0 mi SSE 6.9 mph - N/A   Clear
7:53 PM 21.2 °F 10.9 °F 19.4 °F 93% 29.68 in 10.0 mi SSE 9.2 mph - N/A   Clear
8:13 PM 23.0 °F 13.1 °F 19.4 °F 86% 29.66 in 10.0 mi SSE 9.2 mph - N/A   Clear
8:33 PM 23.0 °F 12.4 °F 19.4 °F 86% 29.66 in 10.0 mi SSE 10.4 mph - N/A   Clear
8:53 PM 24.8 °F 14.6 °F 21.2 °F 86% 29.66 in 10.0 mi SSE 10.4 mph - N/A   Clear
9:13 PM 24.8 °F 14.0 °F 19.4 °F 80% 29.66 in 10.0 mi SSE 11.5 mph - N/A   Clear
9:33 PM 23.0 °F 12.4 °F 19.4 °F 86% 29.66 in 10.0 mi SSE 10.4 mph - N/A   Clear
9:53 PM 23.0 °F 12.4 °F 19.4 °F 86% 29.66 in 10.0 mi SSE 10.4 mph - N/A   Clear
10:13 PM 24.8 °F 14.6 °F 19.4 °F 80% 29.65 in 10.0 mi SSE 10.4 mph - N/A   Clear
10:33 PM 24.8 °F 14.0 °F 19.4 °F 80% 29.63 in 10.0 mi SSE 11.5 mph - N/A   Clear
10:53 PM 24.8 °F 14.0 °F 19.4 °F 80% 29.63 in 10.0 mi SSE 11.5 mph - N/A   Clear
11:13 PM 24.8 °F 13.4 °F 19.4 °F 80% 29.62 in 10.0 mi SSE 12.7 mph - N/A   Clear
11:33 PM 24.8 °F 12.9 °F 19.4 °F 80% 29.61 in 10.0 mi SSE 13.8 mph - N/A   Clear
11:53 PM 24.8 °F 14.0 °F 19.4 °F 80% 29.60 in 10.0 mi SSE 11.5 mph - N/A   Clear